Location: Detroit
(42.3310°N, 83.0460°W)
Time: 23:57:45
(UTC-04:00)

A-11 Canister half - Pass Details

Date: 10 February 2023
Orbit: 1526 x 1682 km, 47.3° (Epoch: 20 March)

Event Time Altitude Azimuth Distance (km) Brightness Sun altitude
Rises 11:31:30 0° 295° (WNW) 4,702 11.2 30.8°
Reaches altitude 10° 11:34:48 10° 288° (WNW) 3,731 10.8 31.0°
Maximum altitude 11:43:09 37° 225° (SW) 2,271 10.6 31.6°
Drops below altitude 10° 11:51:43 10° 163° (SSE) 3,822 12.6 32.0°
Sets 11:55:10 0° 155° (SSE) 4,828 12.7 32.2°
